Weather Roundup
Issued by NWS

Home | Current Version | Previous Version | Text Only | Print | Product List | Glossary On
Versions: 1 2 3 4 5 6 7 8 9 10 11 12 13 14 15 16 17 18 19 20 21 22 23 24 25 26 27 28 29 30 31 32 33 34 35 36 37 38 39 40 41 42 43 44 45 46 47 48 49 50
574
NZUS93 KARX 220659
HRRWXR

CURRENT HOURLY OBSERVATIONS ACROSS
MUCH OF THE UPPER MISSISSIPPI VALLEY
NATIONAL WEATHER SERVICE LA CROSSE WI
200 AM CDT SUN APR 22 2018


...SOUTHEAST MINNESOTA...


CITY           SKY/WX    TMP DP  RH WIND       PRES   REMARKS
ROCHESTER      FAIR      42  33  70 E5        30.33F
ROCHESTER/MAYO FAIR      40  33  77 CALM      30.34S
WINONA         FAIR      36  32  87 CALM      30.33F
AUSTIN         FAIR      39  30  70 CALM      30.33S
ALBERT LEA     FAIR      37  30  75 CALM      30.33S
DODGE CENTER   FAIR      37  32  81 E3        30.33F
PRESTON        FAIR      41  31  67 CALM      30.34S
OWATONNA       FAIR      37  34  87 E3        30.33S
FARIBAULT      NOT AVBL
$$

...ELSEWHERE IN MINNESOTA...


CITY           SKY/WX    TMP DP  RH WIND       PRES   REMARKS
MINNEAPOLIS    FAIR      44  33  65 CALM      30.35S
INTNL FALLS    FAIR      34  25  69 CALM      30.27F
DULUTH         FAIR      36  18  48 CALM      30.32F
RED WING       FAIR      32  27  80 CALM      30.34S
REDWOOD FALLS  CLEAR     38  33  82 CALM      30.32F
MANKATO        FAIR      41  35  79 E5        30.33S
WORTHINGTON    CLOUDY    35  32  88 NE5       30.31F WCI  31
FAIRMONT       CLOUDY    37  31  78 E3        30.32F
$$

...SOUTHWEST WISCONSIN...


CITY           SKY/WX    TMP DP  RH WIND       PRES   REMARKS
LA CROSSE      FAIR      41  32  70 E3        30.35S
PRAIRIE DU CHI CLOUDY    40  33  74 CALM      30.34S
BOSCOBEL       CLOUDY    35  32  88 NE3       30.34F
LONE ROCK      NOT AVBL
PLATTEVILLE    CLOUDY    44  35  71 E6        30.33F
FORT MC COY    FAIR      30  27  88 CALM      30.37S
CAMP DOUGLAS   FAIR      31  29  91 CALM      30.35S
MAUSTON-NEW LI FAIR      32  31  94 CALM      30.35S
VIROQUA        FAIR      44  32  63 E6        30.34F
WIS DELLS      FAIR      35  30  82 CALM      30.35F
$$

...ELSEWHERE IN WISCONSIN...


CITY           SKY/WX    TMP DP  RH WIND       PRES   REMARKS
MILWAUKEE      MOCLDY    41  24  51 CALM      30.37F
MADISON        FAIR      34  32  92 CALM      30.35F
GREEN BAY      FAIR      32  26  78 CALM      30.37S
EAU CLAIRE     NOT AVBL
BLACK RVR FLS  NOT AVBL
MEDFORD        FAIR      30  25  82 S3        30.35R
WAUSAU         FAIR      31  26  82 CALM      30.34S
WIS RAPIDS     FAIR      33  24  69 CALM      30.36F
MARSHFIELD     FAIR      38  27  64 CALM      30.34F
RICE LAKE      FAIR      30  27  88 CALM      30.37R
$$

...NORTHEAST IOWA...


CITY           SKY/WX    TMP DP  RH WIND       PRES   REMARKS
WATERLOO       FAIR      43  36  76 E7        30.30F
DUBUQUE        CLOUDY    46  30  53 E8        30.31F
DECORAH        CLOUDY    43  32  65 CALM      30.32F
MASON CITY     CLOUDY    39  35  86 E7        30.32F WCI  34
CHARLES CITY   CLOUDY    43  37  81 E5        30.33S
OELWEIN        CLOUDY    45  37  76 E6        30.32F
$$

...ELSEWHERE IN IOWA...


CITY           SKY/WX    TMP DP  RH WIND       PRES   REMARKS
DES MOINES     CLOUDY    50  32  50 E12       30.27F
IOWA CITY      FAIR      48  31  51 NE8       30.30F
FORT DODGE     CLOUDY    48  35  60 SE12      30.28F
MARSHALLTOWN   CLOUDY    43  36  76 E8        30.27F
CEDAR RAPIDS   FAIR      46  35  65 E9        30.28F
$$

...NORTHERN ILLINOIS...


CITY           SKY/WX    TMP DP  RH WIND       PRES   REMARKS
CHICAGO-OHARE  CLOUDY    44  21  40 NE7       30.35F
CHICAGO-MIDWAY CLOUDY    45  19  35 NE9       30.36F
MOLINE         FAIR      49  22  34 E13       30.28F
ROCKFORD       CLOUDY    42  24  49 E5        30.35F
PEORIA         FAIR      49  30  48 E16       30.26F
$$

NOTE: "FAIR" INDICATES FEW OR NO CLOUDS BELOW 12,000 FEET WITH NO
SIGNIFICANT WEATHER AND/OR OBSTRUCTIONS TO VISIBILITY. WIND
SPEEDS ARE IN MILES-PER-HOUR.




USA.gov is the U.S. government's official web portal to all federal, state and local government web resources and services.